Weather History for Nogales, AZ

Change the Weather History Date:

Wednesday, September 25, 2013

  Actual Average (KTUS) Record (KTUS)
Temperature  
Mean Temperature 70 °F 79 °F  
Max Temperature 88 °F 92 °F 104 °F (1899)
Min Temperature 53 °F 66 °F 48 °F (1913)
Degree Days  
Heating Degree Days 0 0  
Month to date heating degree days 0  
Since 1 July heating degree days 0  
Cooling Degree Days 6 14  
Month to date cooling degree days 435  
Year to date cooling degree days 2845  
Growing Degree Days 20 (Base 50)    
Moisture  
Dew Point 29 °F    
Average Humidity 22    
Maximum Humidity 45    
Minimum Humidity 12    
Precipitation  
Precipitation 0.00 in 0.03 in 1.25 in (1976)
Month to date precipitation 1.12  
Year to date precipitation 9.03  
Sea Level Pressure  
Sea Level Pressure 29.74 in    
Wind  
Wind Speed 6 mph (South)    
Max Wind Speed 18 mph    
Max Gust Speed 30 mph    
Visibility 10 miles    
Events      
T = Trace of Precipitation, MM = Missing Value Source: NWS Daily Summary

Daily Weather History Graph

Daily Weather History Graph

Search for Another Location

Airport:

Trip Planner

Search our weather history database for the weather conditions in past years. The results will help you decide how hot, cold, wet, or windy it might be!

Date:

Astronomy

Sep. 25, 2013 Rise Set
Actual Time 6:13 AM MST 6:15 PM MST
Civil Twilight 5:49 AM MST 6:39 PM MST
Nautical Twilight 5:21 AM MST 7:08 PM MST
Astronomical Twilight 4:52 AM MST 7:36 PM MST
Moon 10:44 PM MST (9/25) 12:02 PM MST (9/25)
Length of Visible Light 12h 50m
Length of Day
12h 02m
Waning Gibbous, 63% of the Moon is Illuminated
Sep 25
Waning Gibbous
Sep 26
Last Quarter
Oct 4
New
Oct 11
First Quarter
Oct 18
Full

Hourly Weather History & Observations

Time (MST) Temp. Dew Point Humidity Pressure Visibility Wind Dir Wind Speed Gust Speed Precip Events Conditions
12:54 AM 64.9 °F 28.0 °F 25% 29.80 in 10.0 mi ESE 3.5 mph - N/A   Clear
1:54 AM 60.1 °F 30.0 °F 32% 29.79 in 10.0 mi Calm Calm - N/A   Clear
2:54 AM 57.0 °F 30.9 °F 37% 29.78 in 10.0 mi SSE 4.6 mph - N/A   Clear
3:54 AM 57.9 °F 28.9 °F 33% 29.78 in 10.0 mi Calm Calm - N/A   Clear
4:54 AM 53.1 °F 32.0 °F 45% 29.80 in 10.0 mi East 5.8 mph - N/A   Clear
5:54 AM 55.9 °F 30.0 °F 37% 29.80 in 10.0 mi East 4.6 mph - N/A   Partly Cloudy
6:54 AM 55.9 °F 33.1 °F 42% 29.82 in 10.0 mi North 3.5 mph - N/A   Clear
7:54 AM 64.9 °F 35.1 °F 33% 29.83 in 10.0 mi Calm Calm - N/A   Partly Cloudy
8:54 AM 73.9 °F 33.1 °F 22% 29.81 in 10.0 mi Calm Calm - N/A   Clear
9:54 AM 81.0 °F 24.1 °F 12% 29.78 in 10.0 mi Variable 4.6 mph - N/A   Clear
10:54 AM 84.0 °F 30.0 °F 14% 29.76 in 10.0 mi SSW 10.4 mph 23.0 mph N/A   Clear
11:54 AM 87.1 °F 30.9 °F 13% 29.72 in 10.0 mi SSW 18.4 mph 25.3 mph N/A   Clear
12:54 PM 87.1 °F 30.0 °F 13% 29.71 in 10.0 mi SSW 17.3 mph 21.9 mph N/A   Scattered Clouds
1:54 PM 88.0 °F 30.0 °F 12% 29.70 in 10.0 mi SW 13.8 mph 25.3 mph N/A   Overcast
2:54 PM 88.0 °F 30.9 °F 13% 29.69 in 10.0 mi South 17.3 mph 25.3 mph N/A   Overcast
3:54 PM 86.0 °F 30.0 °F 13% 29.69 in 10.0 mi SSW 16.1 mph - N/A   Mostly Cloudy
4:54 PM 84.9 °F 28.9 °F 13% 29.69 in 10.0 mi SW 15.0 mph 29.9 mph N/A   Scattered Clouds
5:54 PM 81.0 °F 28.0 °F 14% 29.69 in 10.0 mi SSW 11.5 mph - N/A   Partly Cloudy
6:54 PM 75.9 °F 28.9 °F 18% 29.71 in 10.0 mi SSW 8.1 mph - N/A   Clear
7:54 PM 73.0 °F 28.0 °F 19% 29.72 in 10.0 mi SSW 8.1 mph - N/A   Clear
8:54 PM 73.0 °F 24.1 °F 16% 29.71 in 10.0 mi South 9.2 mph 17.3 mph N/A   Clear
9:54 PM 70.0 °F 21.9 °F 16% 29.70 in 10.0 mi SSE 6.9 mph - N/A   Clear
10:54 PM 69.1 °F 21.9 °F 17% 29.70 in 10.0 mi SE 3.5 mph - N/A   Clear
11:54 PM 66.9 °F 24.1 °F 20% 29.69 in 10.0 mi SSE 3.5 mph - N/A   Clear